Time,TemperatureF,DewpointF,PressureIn,WindDirection,WindDirectionDegrees,WindSpeedMPH,WindSpeedGustMPH,Humidity,HourlyPrecipIn,Conditions,Clouds,dailyrainin,SoftwareType,DateUTC
2013-05-20 00:14:00,47.2,44.9,30.39,NE,45,0.0,0.0,92,0.00,CLR,SCT,0.00,WeatherDisplay:10.37,2013-05-20 07:14:00,
2013-05-20 00:29:00,46.9,44.9,30.39,NE,45,0.0,0.0,93,0.00,CLR,SCT,0.00,WeatherDisplay:10.37,2013-05-20 07:29:00,
2013-05-20 00:44:00,46.6,44.7,30.40,NE,45,0.0,0.0,93,0.00,CLR,SCT,0.00,WeatherDisplay:10.37,2013-05-20 07:44:00,
2013-05-20 00:59:00,46.0,44.1,30.40,NE,45,0.0,0.0,93,0.00,CLR,SCT,0.00,WeatherDisplay:10.37,2013-05-20 07:59:00,
2013-05-20 01:14:00,46.3,44.7,30.40,NE,45,0.0,2.0,94,0.00,CLR,SCT,0.00,WeatherDisplay:10.37,2013-05-20 08:14:00,
2013-05-20 01:29:00,45.8,43.9,30.39,NE,45,0.0,0.0,93,0.00,CLR,SCT,0.00,WeatherDisplay:10.37,2013-05-20 08:29:00,
2013-05-20 01:44:00,45.5,43.9,30.39,NE,45,0.0,1.0,94,0.00,CLR,SCT,0.00,WeatherDisplay:10.37,2013-05-20 08:44:00,
2013-05-20 01:59:00,45.5,43.9,30.38,NE,45,0.0,0.0,94,0.00,CLR,SCT,0.00,WeatherDisplay:10.37,2013-05-20 08:59:00,
2013-05-20 02:14:00,45.3,43.7,30.37,NE,45,0.0,0.0,94,0.00,CLR,SCT,0.00,WeatherDisplay:10.37,2013-05-20 09:14:00,
2013-05-20 02:29:00,44.4,42.8,30.36,NE,45,0.0,0.0,94,0.00,CLR,SCT,0.00,WeatherDisplay:10.37,2013-05-20 09:29:00,
2013-05-20 02:44:00,44.2,42.6,30.37,NE,45,0.0,0.0,94,0.00,CLR,SCT,0.00,WeatherDisplay:10.37,2013-05-20 09:44:00,
2013-05-20 02:59:00,43.6,42.0,30.36,NE,45,0.0,0.0,94,0.00,CLR,SCT,0.00,WeatherDisplay:10.37,2013-05-20 09:59:00,
2013-05-20 03:14:00,43.8,42.5,30.36,NE,45,0.0,0.0,95,0.00,CLR,SCT,0.00,WeatherDisplay:10.37,2013-05-20 10:14:00,
2013-05-20 03:29:00,43.1,41.5,30.35,NE,45,0.0,0.0,94,0.00,CLR,SCT,0.00,WeatherDisplay:10.37,2013-05-20 10:29:00,
2013-05-20 03:44:00,42.7,41.3,30.36,NE,45,0.0,0.0,95,0.00,CLR,SCT,0.00,WeatherDisplay:10.37,2013-05-20 10:44:00,
2013-05-20 03:59:00,42.9,41.6,30.35,NE,45,0.0,1.0,95,0.00,CLR,SCT,0.00,WeatherDisplay:10.37,2013-05-20 10:59:00,
2013-05-20 04:14:00,42.7,41.4,30.34,NE,45,0.0,0.0,95,0.00,CLR,SCT,0.00,WeatherDisplay:10.37,2013-05-20 11:14:00,
2013-05-20 04:29:00,41.9,40.6,30.34,NE,45,0.0,0.0,95,0.00,CLR,SCT,0.00,WeatherDisplay:10.37,2013-05-20 11:29:00,
2013-05-20 04:44:00,41.3,40.0,30.34,NE,45,0.0,0.0,95,0.00,CLR,SCT,0.00,WeatherDisplay:10.37,2013-05-20 11:44:00,
2013-05-20 04:59:00,41.4,40.1,30.34,NE,45,0.0,0.0,95,0.00,CLR,SCT,0.00,WeatherDisplay:10.37,2013-05-20 11:59:00,
2013-05-20 05:14:00,41.7,40.6,30.34,NE,45,0.0,0.0,96,0.00,CLR,SCT,0.00,WeatherDisplay:10.37,2013-05-20 12:14:00,
2013-05-20 05:29:00,42.0,40.9,30.34,NE,45,0.0,0.0,96,0.00,CLR,SCT,0.00,WeatherDisplay:10.37,2013-05-20 12:29:00,
2013-05-20 05:44:00,42.2,41.1,30.34,NE,45,0.0,0.0,96,0.00,CLR,SCT,0.00,WeatherDisplay:10.37,2013-05-20 12:44:00,
2013-05-20 05:59:00,42.4,41.3,30.34,NE,45,0.0,0.0,96,0.00,CLR,SCT,0.00,WeatherDisplay:10.37,2013-05-20 12:59:00,
2013-05-20 06:14:00,42.5,41.4,30.34,NE,45,0.0,0.0,96,0.00,CLR,SCT,0.00,WeatherDisplay:10.37,2013-05-20 13:14:00,
2013-05-20 06:29:00,42.7,41.6,30.33,NE,45,0.0,0.0,96,0.00,CLR,SCT,0.00,WeatherDisplay:10.37,2013-05-20 13:29:00,
2013-05-20 06:44:00,43.0,41.9,30.33,NE,45,0.0,0.0,96,0.00,CLR,SCT,0.00,WeatherDisplay:10.37,2013-05-20 13:44:00,
2013-05-20 06:59:00,43.2,42.1,30.33,NE,45,0.0,1.0,96,0.00,CLR,SCT,0.00,WeatherDisplay:10.37,2013-05-20 13:59:00,
2013-05-20 07:14:00,43.4,42.3,30.33,NE,45,0.0,1.0,96,0.00,CLR,SCT,0.00,WeatherDisplay:10.37,2013-05-20 14:14:00,
2013-05-20 07:29:00,43.6,42.5,30.33,NE,45,0.0,1.0,96,0.00,CLR,SCT,0.00,WeatherDisplay:10.37,2013-05-20 14:29:00,
2013-05-20 07:44:00,44.1,43.3,30.32,NE,45,0.0,1.0,97,0.00,CLR,SCT,0.00,WeatherDisplay:10.37,2013-05-20 14:44:00,
2013-05-20 07:59:00,44.9,44.1,30.32,NE,45,0.0,1.0,97,0.00,CLR,SCT,0.00,WeatherDisplay:10.37,2013-05-20 14:59:00,
2013-05-20 08:14:00,46.3,45.5,30.31,NE,45,0.0,1.0,97,0.00,CLR,SCT,0.00,WeatherDisplay:10.37,2013-05-20 15:14:00,
2013-05-20 08:29:00,46.6,45.8,30.31,NE,45,0.0,1.0,97,0.00,CLR,SCT,0.00,WeatherDisplay:10.37,2013-05-20 15:29:00,
2013-05-20 08:44:00,47.0,45.9,30.31,NE,45,0.0,1.0,96,0.00,CLR,SCT,0.00,WeatherDisplay:10.37,2013-05-20 15:44:00,
2013-05-20 08:59:00,47.4,46.4,30.31,NE,44,0.0,1.0,96,0.00,CLR,SCT,0.00,WeatherDisplay:10.37,2013-05-20 15:59:00,
2013-05-20 09:14:00,48.4,47.0,30.30,NE,39,0.0,1.0,95,0.00,CLR,SCT,0.00,WeatherDisplay:10.37,2013-05-20 16:14:00,
2013-05-20 09:29:00,50.5,48.5,30.29,NNE,28,0.0,1.0,93,0.00,CLR,SCT,0.00,WeatherDisplay:10.37,2013-05-20 16:29:00,
2013-05-20 09:44:00,52.4,49.2,30.28,NNW,334,0.0,3.0,89,0.00,CLR,SCT,0.00,WeatherDisplay:10.37,2013-05-20 16:44:00,
2013-05-20 09:59:00,55.0,49.9,30.27,North,352,1.0,3.0,83,0.00,CLR,SCT,0.00,WeatherDisplay:10.37,2013-05-20 16:59:00,
2013-05-20 10:14:00,56.4,50.0,30.26,NNW,336,0.0,3.0,79,0.00,CLR,SCT,0.00,WeatherDisplay:10.37,2013-05-20 17:14:00,
2013-05-20 10:29:00,57.9,50.7,30.25,WNW,295,0.0,2.0,77,0.00,CLR,SCT,0.00,WeatherDisplay:10.37,2013-05-20 17:29:00,
2013-05-20 10:44:00,58.7,50.4,30.25,WSW,253,5.0,8.0,74,0.00,CLR,SCT,0.00,WeatherDisplay:10.37,2013-05-20 17:44:00,
2013-05-20 10:59:00,59.5,50.5,30.24,WNW,283,1.0,5.0,72,0.00,CLR,SCT,0.00,WeatherDisplay:10.37,2013-05-20 17:59:00,
2013-05-20 11:14:00,60.1,51.0,30.24,NNW,346,1.0,9.0,72,0.00,CLR,SCT,0.00,WeatherDisplay:10.37,2013-05-20 18:14:00,
2013-05-20 11:29:00,60.8,49.4,30.23,WNW,292,3.0,7.0,66,0.00,CLR,SCT,0.00,WeatherDisplay:10.37,2013-05-20 18:29:00,
2013-05-20 11:44:00,61.4,50.7,30.23,WSW,256,1.0,10.0,68,0.00,CLR,SCT,0.00,WeatherDisplay:10.37,2013-05-20 18:44:00,
2013-05-20 11:59:00,62.7,50.4,30.22,WSW,238,1.0,4.0,64,0.00,CLR,SCT,0.00,WeatherDisplay:10.37,2013-05-20 18:59:00,
2013-05-20 12:14:00,63.8,50.5,30.21,West,272,0.0,3.0,62,0.00,CLR,SCT,0.00,WeatherDisplay:10.37,2013-05-20 19:14:00,
2013-05-20 12:29:00,64.1,49.5,30.20,West,263,1.0,9.0,59,0.00,CLR,SCT,0.00,WeatherDisplay:10.37,2013-05-20 19:29:00,
2013-05-20 12:44:00,64.9,49.8,30.20,NW,315,1.0,7.0,58,0.00,CLR,SCT,0.00,WeatherDisplay:10.37,2013-05-20 19:44:00,
2013-05-20 12:59:00,64.8,51.0,30.20,West,276,6.0,10.0,61,0.00,CLR,SCT,0.00,WeatherDisplay:10.37,2013-05-20 19:59:00,
2013-05-20 13:14:00,63.8,50.9,30.19,West,267,2.0,12.0,63,0.00,CLR,SCT,0.00,WeatherDisplay:10.37,2013-05-20 20:14:00,
2013-05-20 13:29:00,64.4,49.3,30.19,West,269,5.0,12.0,58,0.00,CLR,SCT,0.00,WeatherDisplay:10.37,2013-05-20 20:29:00,
2013-05-20 13:44:00,63.3,49.6,30.18,WNW,288,6.0,13.0,61,0.00,CLR,SCT,0.00,WeatherDisplay:10.37,2013-05-20 20:44:00,
2013-05-20 13:59:00,62.6,48.5,30.18,WSW,256,5.0,12.0,60,0.00,CLR,SCT,0.00,WeatherDisplay:10.37,2013-05-20 20:59:00,
2013-05-20 14:14:00,62.0,49.7,30.18,West,266,3.0,12.0,64,0.00,CLR,SCT,0.00,WeatherDisplay:10.37,2013-05-20 21:14:00,
2013-05-20 14:29:00,62.2,49.0,30.18,West,266,5.0,13.0,62,0.00,CLR,SCT,0.00,WeatherDisplay:10.37,2013-05-20 21:29:00,
2013-05-20 14:44:00,61.8,47.8,30.17,West,266,7.0,12.0,60,0.00,CLR,SCT,0.00,WeatherDisplay:10.37,2013-05-20 21:44:00,
2013-05-20 14:59:00,62.6,49.3,30.16,West,261,5.0,10.0,62,0.00,CLR,SCT,0.00,WeatherDisplay:10.37,2013-05-20 21:59:00,
2013-05-20 15:14:00,64.3,48.7,30.15,NW,308,3.0,9.0,57,0.00,CLR,SCT,0.00,WeatherDisplay:10.37,2013-05-20 22:14:00,
2013-05-20 15:29:00,65.2,48.1,30.14,WSW,244,3.0,10.0,54,0.00,CLR,SCT,0.00,WeatherDisplay:10.37,2013-05-20 22:29:00,
2013-05-20 15:44:00,64.1,50.8,30.14,WNW,296,2.0,10.0,62,0.00,CLR,SCT,0.00,WeatherDisplay:10.37,2013-05-20 22:44:00,
2013-05-20 15:59:00,64.5,50.7,30.13,WNW,295,1.0,8.0,61,0.00,CLR,SCT,0.00,WeatherDisplay:10.37,2013-05-20 22:59:00,
2013-05-20 16:14:00,63.9,48.9,30.13,WNW,288,6.0,10.0,58,0.00,CLR,SCT,0.00,WeatherDisplay:10.37,2013-05-20 23:14:00,
2013-05-20 16:29:00,63.9,49.3,30.12,WNW,294,2.0,9.0,59,0.00,CLR,SCT,0.00,WeatherDisplay:10.37,2013-05-20 23:29:00,
2013-05-20 16:44:00,64.8,48.7,30.11,West,272,0.0,8.0,56,0.00,CLR,SCT,0.00,WeatherDisplay:10.37,2013-05-20 23:44:00,
2013-05-20 16:59:00,63.4,48.8,30.11,WSW,245,1.0,9.0,59,0.00,CLR,SCT,0.00,WeatherDisplay:10.37,2013-05-20 23:59:00,
2013-05-20 17:14:00,63.7,49.5,30.10,SW,222,2.0,7.0,60,0.00,CLR,SCT,0.00,WeatherDisplay:10.37,2013-05-21 00:14:00,
2013-05-20 17:29:00,62.8,49.2,30.10,West,276,1.0,10.0,61,0.00,CLR,SCT,0.00,WeatherDisplay:10.37,2013-05-21 00:29:00,
2013-05-20 17:44:00,62.1,50.2,30.09,ESE,113,0.0,7.0,65,0.00,CLR,SCT,0.00,WeatherDisplay:10.37,2013-05-21 00:44:00,
2013-05-20 17:59:00,61.8,49.5,30.09,WSW,250,3.0,7.0,64,0.00,CLR,SCT,0.00,WeatherDisplay:10.37,2013-05-21 00:59:00,
2013-05-20 18:14:00,61.0,50.0,30.09,West,269,1.0,10.0,67,0.00,CLR,SCT,0.00,WeatherDisplay:10.37,2013-05-21 01:14:00,
2013-05-20 18:29:00,60.2,48.8,30.08,WSW,255,1.0,10.0,66,0.00,CLR,SCT,0.00,WeatherDisplay:10.37,2013-05-21 01:29:00,
2013-05-20 18:44:00,59.3,48.7,30.08,WSW,239,1.0,8.0,68,0.00,CLR,SCT,0.00,WeatherDisplay:10.37,2013-05-21 01:44:00,
2013-05-20 18:59:00,59.0,49.2,30.08,WSW,243,1.0,6.0,70,0.00,CLR,SCT,0.00,WeatherDisplay:10.37,2013-05-21 01:59:00,
2013-05-20 19:14:00,58.6,48.9,30.08,West,268,1.0,5.0,70,0.00,CLR,SCT,0.00,WeatherDisplay:10.37,2013-05-21 02:14:00,
2013-05-20 19:29:00,57.2,48.6,30.08,West,269,1.0,7.0,73,0.00,CLR,SCT,0.00,WeatherDisplay:10.37,2013-05-21 02:29:00,
2013-05-20 19:44:00,56.0,48.2,30.08,WNW,296,1.0,5.0,75,0.00,CLR,SCT,0.00,WeatherDisplay:10.37,2013-05-21 02:44:00,
2013-05-20 19:59:00,54.1,47.4,30.08,West,281,0.0,7.0,78,0.00,CLR,SCT,0.00,WeatherDisplay:10.37,2013-05-21 02:59:00,
2013-05-20 20:14:00,53.3,47.3,30.07,West,281,1.0,5.0,80,0.00,CLR,SCT,0.00,WeatherDisplay:10.37,2013-05-21 03:14:00,
2013-05-20 20:29:00,52.4,47.1,30.07,WSW,255,0.0,6.0,82,0.00,CLR,SCT,0.00,WeatherDisplay:10.37,2013-05-21 03:29:00,
2013-05-20 20:59:00,52.1,47.1,30.06,West,268,0.0,8.0,83,0.00,CLR,SCT,0.00,WeatherDisplay:10.37,2013-05-21 03:59:00,
2013-05-20 21:14:00,52.0,46.7,30.06,WSW,256,0.0,7.0,82,0.00,CLR,SCT,0.00,WeatherDisplay:10.37,2013-05-21 04:14:00,
2013-05-20 21:29:00,51.8,46.5,30.06,West,266,1.0,5.0,82,0.00,CLR,SCT,0.00,WeatherDisplay:10.37,2013-05-21 04:29:00,
2013-05-20 21:44:00,51.7,46.7,30.06,West,261,0.0,5.0,83,0.00,CLR,SCT,0.00,WeatherDisplay:10.37,2013-05-21 04:44:00,
2013-05-20 21:59:00,51.6,46.6,30.05,West,262,0.0,3.0,83,0.00,CLR,SCT,0.00,WeatherDisplay:10.37,2013-05-21 04:59:00,
2013-05-20 22:14:00,51.6,46.6,30.05,WNW,288,0.0,5.0,83,0.00,CLR,SCT,0.00,WeatherDisplay:10.37,2013-05-21 05:14:00,
2013-05-20 22:29:00,51.6,46.6,30.04,West,263,0.0,4.0,83,0.00,CLR,SCT,0.00,WeatherDisplay:10.37,2013-05-21 05:29:00,
2013-05-20 22:44:00,51.5,46.9,30.03,West,259,0.0,1.0,84,0.00,CLR,SCT,0.00,WeatherDisplay:10.37,2013-05-21 05:44:00,
2013-05-20 22:59:00,51.5,46.8,30.03,West,259,0.0,2.0,84,0.00,CLR,SCT,0.00,WeatherDisplay:10.37,2013-05-21 05:59:00,
2013-05-20 23:14:00,51.5,46.8,30.03,West,266,0.0,2.0,84,0.00,CLR,SCT,0.00,WeatherDisplay:10.37,2013-05-21 06:14:00,
2013-05-20 23:44:00,51.3,46.6,30.02,WNW,284,0.0,4.0,84,0.00,CLR,SCT,0.00,WeatherDisplay:10.37,2013-05-21 06:44:00,
2013-05-20 23:59:00,51.2,46.5,30.01,West,273,0.0,3.0,84,0.00,CLR,SCT,0.00,WeatherDisplay:10.37,2013-05-21 06:59:00,